Weather History for Hawthorne, CA

Change the Weather History Date:

Monday, December 31, 2012

  Actual Average Record
Temperature  
Mean Temperature 50 °F -  
Max Temperature 59 °F 65 °F 79 °F (1963)
Min Temperature 41 °F 46 °F 35 °F (1947)
Degree Days  
Heating Degree Days 15    
Moisture  
Dew Point 37 °F    
Average Humidity 61    
Maximum Humidity 82    
Minimum Humidity 44    
Precipitation  
Precipitation 0.00 in - - ()
Sea Level Pressure  
Sea Level Pressure 30.20 in    
Wind  
Wind Speed 2 mph (SE)    
Max Wind Speed 8 mph    
Max Gust Speed -    
Visibility 9 miles    
Events      
Averages and records for this station are not official NWS values.
T = Trace of Precipitation, MM = Missing Value Source: NWS Daily Summary

Daily Weather History Graph

Daily Weather History Graph

Search for Another Location

Airport:

Trip Planner

Search our weather history database for the weather conditions in past years. The results will help you decide how hot, cold, wet, or windy it might be!

Date:

Astronomy

Dec. 31, 2012 Rise Set
Actual Time 6:58 AM PST 4:54 PM PST
Civil Twilight 6:30 AM PST 5:22 PM PST
Nautical Twilight 5:59 AM PST 5:53 PM PST
Astronomical Twilight 5:29 AM PST 6:24 PM PST
Moon 8:19 PM PST (12/31) 8:51 AM PST (12/31)
Length of Visible Light 10h 51m
Length of Day
9h 56m
Waning Gibbous, 89% of the Moon is Illuminated
Dec 31
Waning Gibbous
Jan 4
Last Quarter
Jan 11
New
Jan 18
First Quarter
Jan 26
Full

Hourly Weather History & Observations

Time (PST) Temp. Windchill Dew Point Humidity Pressure Visibility Wind Dir Wind Speed Gust Speed Precip Events Conditions
12:53 AM 50.0 °F - 30.9 °F 48% 30.08 in 10.0 mi Calm Calm - N/A   Clear
1:53 AM 46.0 °F 43.9 °F 33.1 °F 61% 30.11 in 10.0 mi SE 4.6 mph - N/A   Clear
2:53 AM 44.1 °F - 35.1 °F 71% 30.12 in 10.0 mi Calm Calm - N/A   Clear
3:53 AM 42.1 °F 40.2 °F 36.0 °F 79% 30.12 in 10.0 mi East 3.5 mph - N/A   Clear
4:53 AM 41.0 °F - 36.0 °F 82% 30.14 in 10.0 mi Calm Calm - N/A   Clear
6:53 AM 41.0 °F - 35.1 °F 79% 30.17 in 10.0 mi Calm Calm - N/A   Clear
7:53 AM 43.0 °F - 35.1 °F 74% 30.19 in 10.0 mi Calm Calm - N/A   Clear
8:53 AM 50.0 °F - 34.0 °F 54% 30.22 in 10.0 mi Calm Calm - N/A   Clear
9:53 AM 52.0 °F - 36.0 °F 54% 30.24 in 10.0 mi ESE 5.8 mph - N/A   Clear
10:29 AM 53.6 °F - 37.4 °F 54% 30.24 in 1.8 mi SE 4.6 mph - N/A   Haze
10:36 AM 53.6 °F - 37.4 °F 54% 30.23 in 10.0 mi ESE 6.9 mph - N/A   Clear
10:53 AM 54.0 °F - 37.9 °F 55% 30.22 in 10.0 mi ESE 8.1 mph - N/A   Clear
11:53 AM 55.9 °F - 37.0 °F 49% 30.21 in 10.0 mi SE 3.5 mph - N/A   Clear
12:53 PM 57.9 °F - 37.0 °F 46% 30.19 in 10.0 mi SSE 4.6 mph - N/A   Clear
1:53 PM 57.9 °F - 36.0 °F 44% 30.18 in 10.0 mi Variable 4.6 mph - N/A   Clear
2:53 PM 59.0 °F - 39.0 °F 48% 30.18 in 10.0 mi SW 3.5 mph - N/A   Scattered Clouds
3:53 PM 57.9 °F - 41.0 °F 53% 30.19 in 10.0 mi WSW 8.1 mph - N/A   Partly Cloudy
4:53 PM 55.9 °F - 39.0 °F 53% 30.21 in 10.0 mi West 8.1 mph - N/A   Clear
5:53 PM 54.0 °F - 41.0 °F 62% 30.21 in 10.0 mi Calm Calm - N/A   Clear
6:53 PM 53.1 °F - 39.9 °F 61% 30.22 in 10.0 mi Calm Calm - N/A   Clear
7:53 PM 52.0 °F - 41.0 °F 66% 30.23 in 10.0 mi Calm Calm - N/A   Clear
8:53 PM 51.1 °F - 39.9 °F 66% 30.24 in 10.0 mi Calm Calm - N/A   Clear
9:53 PM 48.9 °F - 41.0 °F 74% 30.25 in 10.0 mi Calm Calm - N/A   Clear
10:53 PM 50.0 °F - 39.0 °F 66% 30.25 in 7.0 mi Calm Calm - N/A   Clear
11:53 PM 48.9 °F - 37.9 °F 66% 30.25 in 7.0 mi Calm Calm - N/A   Clear